Belmar-Farmingdale, NJ

4:42 AM EST on November 13, 2019 (GMT -0500)
Allaire

Weather History for KBLM - September, 2019

Change the Weather History Date:

Monday, September 30, 2019

  Actual Average Record
Temperature  
Mean Temperature 66 °F -  
Max Temperature 68 °F 66 °F 78 °F (2015)
Min Temperature 64 °F 51 °F 41 °F (2006)
Cooling Degree Days 1    
Growing Degree Days 16 (Base 50)    
Moisture  
Dew Point 56 °F    
Average Humidity 71    
Maximum Humidity 90    
Minimum Humidity 60    
Precipitation  
Precipitation 0.00 in - - ()
Sea Level Pressure  
Sea Level Pressure 30.30 in    
Wind  
Wind Speed 6 mph ()    
Max Wind Speed 12 mph    
Max Gust Speed 17 mph    
Visibility 10.0 miles    
Events      
Averages and records for this station are not official NWS values.
T = Trace of Precipitation, MM = Missing Value Source: Averaged Metar Reports

Daily Weather History Graph

Daily Weather History Graph

Search for Another Location

Airport or City:

Astronomy

Sep. 30, 2019 Rise Set
Actual Time 6:51 AM EDT 6:40 PM EDT
Civil Twilight 6:24 AM EDT 7:07 PM EDT
Nautical Twilight 5:53 AM EDT 7:39 PM EDT
Astronomical Twilight 5:21 AM EDT 8:11 PM EDT
Moon 8:52 AM EDT (9/30) 8:14 PM EDT (9/30)
Length of Visible Light 12h 43m
Length of Day
11h 49m
Waxing Crescent, 5% of the Moon is Illuminated
Sep 30
Waxing Crescent
Oct 5
First Quarter
Oct 13
Full
Oct 21
Last Quarter
Oct 27
New

Hourly Weather History & Observations

Time (EDT) Temp. Dew Point Humidity Pressure Visibility Wind Dir Wind Speed Gust Speed Precip Events Conditions
12:56 AM 64.0 °F 61.0 °F 90% 30.30 in 10.0 mi WNW 3.5 mph - N/A   Clear
1:56 AM 64.9 °F 61.0 °F 87% 30.31 in 10.0 mi NNW 3.5 mph - N/A   Overcast
2:23 AM 66.2 °F 59.0 °F 78% 30.30 in 10.0 mi North 5.8 mph - N/A   Overcast
2:56 AM 66.0 °F 55.9 °F 70% 30.29 in 10.0 mi NNE 6.9 mph - N/A   Mostly Cloudy
3:40 AM 64.4 °F 55.4 °F 73% 30.28 in 10.0 mi NNE 5.8 mph - N/A   Mostly Cloudy
3:52 AM 64.4 °F 55.4 °F 73% 30.28 in 10.0 mi NNE 4.6 mph - N/A   Mostly Cloudy
3:56 AM 64.9 °F 55.0 °F 70% 30.29 in 10.0 mi North 5.8 mph - N/A   Overcast
4:45 AM 64.4 °F 57.2 °F 77% 30.29 in 10.0 mi NNE 4.6 mph - N/A   Mostly Cloudy
4:56 AM 64.9 °F 57.9 °F 78% 30.30 in 10.0 mi North 4.6 mph - N/A   Overcast
6:56 AM 66.0 °F 57.9 °F 75% 30.31 in 10.0 mi East 5.8 mph - N/A   Overcast
7:36 AM 66.2 °F 51.8 °F 60% 30.32 in 10.0 mi ENE 11.5 mph - N/A   Overcast
7:56 AM 66.0 °F 52.0 °F 60% 30.33 in 10.0 mi East 8.1 mph - N/A   Overcast
8:56 AM 66.0 °F 57.0 °F 73% 30.34 in 10.0 mi NE 11.5 mph - N/A   Overcast
9:24 AM 64.4 °F 57.2 °F 77% 30.34 in 10.0 mi NE 9.2 mph - N/A   Overcast
9:56 AM 64.9 °F 55.9 °F 73% 30.34 in 10.0 mi NE 11.5 mph - N/A   Overcast
10:34 AM 66.2 °F 57.2 °F 73% 30.34 in 10.0 mi ENE 11.5 mph - N/A   Overcast
10:46 AM 66.2 °F 57.2 °F 73% 30.34 in 10.0 mi NE 10.4 mph 17.3 mph N/A   Overcast
10:56 AM 66.0 °F 57.0 °F 73% 30.33 in 10.0 mi ENE 10.4 mph - N/A   Overcast
11:13 AM 66.2 °F 55.4 °F 68% 30.33 in 10.0 mi ENE 10.4 mph - N/A   Overcast
11:56 AM 66.9 °F 55.0 °F 66% 30.33 in 10.0 mi East 10.4 mph - N/A   Overcast
12:56 PM 66.9 °F 55.9 °F 68% 30.32 in 10.0 mi ENE 10.4 mph - N/A   Overcast
1:10 PM 66.2 °F 55.4 °F 68% 30.32 in 10.0 mi ENE 9.2 mph - N/A   Overcast
1:41 PM 68.0 °F 55.4 °F 64% 30.31 in 10.0 mi East 10.4 mph - N/A   Overcast
1:53 PM 68.0 °F 55.4 °F 64% 30.31 in 10.0 mi East 8.1 mph - N/A   Overcast
1:56 PM 68.0 °F 55.0 °F 63% 30.30 in 10.0 mi East 8.1 mph - N/A   Overcast
2:56 PM 66.9 °F 55.0 °F 66% 30.29 in 10.0 mi East 9.2 mph - N/A   Overcast
3:56 PM 66.0 °F 55.0 °F 68% 30.28 in 10.0 mi ESE 8.1 mph - N/A   Overcast
4:06 PM 66.2 °F 55.4 °F 68% 30.27 in 10.0 mi ESE 5.8 mph - N/A   Overcast
4:56 PM 64.9 °F 54.0 °F 68% 30.27 in 10.0 mi ESE 9.2 mph - N/A   Overcast
5:34 PM 64.4 °F 53.6 °F 68% 30.26 in 10.0 mi ESE 8.1 mph - N/A   Overcast
5:56 PM 64.9 °F 54.0 °F 68% 30.25 in 10.0 mi ESE 6.9 mph - N/A   Overcast
6:56 PM 64.0 °F 54.0 °F 70% 30.25 in 10.0 mi SE 6.9 mph - N/A   Overcast
7:56 PM 64.0 °F 54.0 °F 70% 30.25 in 10.0 mi SE 5.8 mph - N/A   Overcast
8:56 PM 64.0 °F 55.0 °F 73% 30.25 in 10.0 mi SE 4.6 mph - N/A   Overcast
9:56 PM 64.0 °F 54.0 °F 70% 30.25 in 10.0 mi ESE 5.8 mph - N/A   Overcast
10:56 PM 64.0 °F 55.0 °F 73% 30.25 in 10.0 mi SE 3.5 mph - N/A   Overcast
11:56 PM 64.0 °F 55.0 °F 73% 30.24 in 10.0 mi Calm Calm - N/A   Overcast